THOR BURNER 2 R/B

Satellite information

Favourite Embed

Satellite Type and Status

ROCKET BODYIN ORBIT

Key statistics

Satellite THOR BURNER 2 R/B at a glance.

Uptime

21249

Days in orbit

Revolutions

≈ 14.7

Per day

Orbit

SSO

Sun Synchronous Orbit

Inclination

99.2

Latest

Satellite identification and parameters

Extended collection of information and parameters for THOR BURNER 2 R/B.

Object identification

Identified? True

Debris? False

Object name: THOR BURNER 2 R/B

International designator: 1967-096B

Object number (NORAD): 2985

Object ID (CCSDS): 2985

Country: UNITED STATES OF AMERICA (US)

Current information (Y/N): Y

RCS size: LARGE

Orbital parameters

Period: 98.014 minutes

Inclination: 99.1732 deg

SMA: 7041.823 km

Apoapsis: 721.304 km

Periapsis: 606.072 km

RAAN: 353.6909 deg

Eccentricy: 0.00818198

Argument of periapsis: 282.4507 deg

Mean anomaly: 76.7549 deg

Mean motion: 14.69180463 rev/day

Mean motion (dot): 0.0000165 rev/day2

B* drag term: 0.00027717248 1/REarth

Two-line elements (TLE)

Creation date: Dec. 12, 2025, 10:14 a.m.

Reference frame: TEME

Reference center: EARTH

Epoch: Dec. 12, 2025, 1:12 a.m. UTC

TLE line 0: 0 THOR BURNER 2 R/B

TLE line 1: 1 02985U 67096B 25346.05017404 .00001650 00000-0 27717-3 0 9992

TLE line 2: 2 02985 99.1732 353.6909 0081820 282.4507 76.7549 14.69180463 65718

Live tracking on map

Real-time ground track for satellite THOR BURNER 2 R/B.

In-orbit conjunctions

A list of the most updated potential collisions computed for object THOR BURNER 2 R/B.

Target Orbit TCA Probability of collision Miss distance Type
FENGYUN 1C DEB SSO 2024-10-20 00:11:18 0.000142045 154.0 (m) DEBRIS
SL-8 DEB * LEO 2024-10-16 20:57:45 0.000435105 649.0 (m) DEBRIS
COSMOS 2251 DEB LEO 2024-10-13 16:19:58 0.0001390725 137.0 (m) DEBRIS
ORBCOMM FM 29 LEO 2024-10-12 00:32:43 0.0007839278 42.0 (m) PAYLOAD
PEGASUS DEB LEO 2024-09-07 15:13:37 0.0001013653 535.0 (m) DEBRIS

Associated space launch

DSAP-4A (Defense Satellite Application Program Block 4A) was the fourth version of the military meteorological satellites of the Defense Meteorological Satellite Program.

THOR BURNER 2 R/B was lifted into orbit during the mission ‘Thor Burner 2 | DSAP-4A F4’, on board a Thor Burner 2 space rocket.

The launch took place on Oct. 11, 1967, 7:57 a.m. from Space Launch Complex 10W.

For more information about the launch, click the button.

Launch to space Thor Burner 2 | DSAP-4A F4
Thor Burner 2 | DSAP-4A F4

Agency: N/A

Status: Launch Successful

Launch date: Oct. 11, 1967, 7:57 a.m. UTC

Rocket: Thor Burner 2

Launch pad: Space Launch Complex 10W

Location: Vandenberg SFB, CA, USA

...

Latest news about this satellite

There are no fresh news available about this satellite. Check back as we update our databases every day.


Newsletter sign-up

Weekly statistics, charts and insights to help you stay on top of the space industry.